Seward, AK

9:56 PM AKST on February 20, 2017 (GMT -0900)
Seward

Weather History for PAWD - December, 2012

Change the Weather History Date:

Monday, December 17, 2012

  Actual Average Record
Temperature  
Mean Temperature 10 °F -  
Max Temperature 19 °F 32 °F 45 °F (1981)
Min Temperature 1 °F 23 °F -6 °F (1980)
Degree Days  
Heating Degree Days 55    
Moisture  
Dew Point -6 °F    
Average Humidity 44    
Maximum Humidity 72    
Minimum Humidity 30    
Precipitation  
Precipitation 0.00 in - - ()
Sea Level Pressure  
Sea Level Pressure 29.63 in    
Wind  
Wind Speed 17 mph (North)    
Max Wind Speed 25 mph    
Max Gust Speed 44 mph    
Visibility 10 miles    
Events      
Averages and records for this station are not official NWS values.
T = Trace of Precipitation, MM = Missing Value Source: NWS Daily Summary

Daily Weather History Graph

Daily Weather History Graph

Search for Another Location

Airport or City:

Trip Planner

Search our weather history database for the weather conditions in past years. The results will help you decide how hot, cold, wet, or windy it might be!

Date:

Astronomy

Dec. 17, 2012 Rise Set
Actual Time 9:58 AM AKST 3:49 PM AKST
Civil Twilight 9:00 AM AKST 4:47 PM AKST
Nautical Twilight 8:03 AM AKST 5:44 PM AKST
Astronomical Twilight 7:11 AM AKST 6:36 PM AKST
Moon 11:56 AM AKST (12/17) 10:45 PM AKST (12/17)
Length of Visible Light 7h 47m
Length of Day
5h 50m
Waxing Crescent, 26% of the Moon is Illuminated
Dec 17
Waxing Crescent
Dec 19
First Quarter
Dec 28
Full
Jan 4
Last Quarter
Jan 11
New

Hourly Weather History & Observations

Time (AKST) Temp. Windchill Dew Point Humidity Pressure Visibility Wind Dir Wind Speed Gust Speed Precip Events Conditions
12:53 AM 18.0 °F 1.7 °F -6.0 °F 35% 29.55 in 10.0 mi North 19.6 mph 29.9 mph N/A   Clear
1:53 AM 18.0 °F -0.2 °F -7.1 °F 33% 29.56 in 10.0 mi NNW 25.3 mph 40.3 mph N/A   Clear
2:53 AM 19.0 °F 2.4 °F -8.0 °F 30% 29.57 in 10.0 mi NNW 21.9 mph 43.7 mph N/A   Clear
3:53 AM 19.0 °F 2.4 °F -8.0 °F 30% 29.60 in 10.0 mi NNW 21.9 mph 38.0 mph N/A   Clear
4:53 AM 18.0 °F 6.1 °F -8.0 °F 31% 29.60 in 10.0 mi North 10.4 mph 27.6 mph N/A   Clear
5:53 AM 18.0 °F 6.1 °F -7.1 °F 33% 29.62 in 10.0 mi North 10.4 mph 21.9 mph N/A   Clear
6:53 AM 19.0 °F 4.0 °F -8.0 °F 30% 29.65 in 10.0 mi NNW 17.3 mph 26.5 mph N/A   Clear
7:53 AM 18.0 °F 5.4 °F -8.0 °F 31% 29.65 in 10.0 mi North 11.5 mph 23.0 mph N/A   Clear
8:53 AM 18.0 °F 4.2 °F -7.1 °F 33% 29.66 in 10.0 mi NNE 13.8 mph 29.9 mph N/A   Clear
9:53 AM 18.0 °F 0.2 °F -7.1 °F 33% 29.66 in 10.0 mi NE 24.2 mph 31.1 mph N/A   Clear
10:53 AM 18.0 °F 1.7 °F -7.1 °F 33% 29.67 in 10.0 mi North 19.6 mph 33.4 mph N/A   Clear
11:53 AM 17.1 °F -0.6 °F -6.0 °F 36% 29.68 in 10.0 mi North 23.0 mph - N/A   Clear
12:53 PM 17.1 °F -0.3 °F -5.1 °F 37% 29.68 in 10.0 mi North 21.9 mph 33.4 mph N/A   Clear
3:53 PM 12.9 °F -3.9 °F -2.0 °F 51% 29.67 in 10.0 mi NNE 17.3 mph 23.0 mph N/A   Clear
4:53 PM 10.9 °F -5.9 °F -2.0 °F 56% 29.69 in 10.0 mi North 16.1 mph - N/A   Clear
5:53 PM 10.0 °F -5.9 °F -0.9 °F 61% 29.66 in 10.0 mi North 13.8 mph 21.9 mph N/A   Clear
6:53 PM 9.0 °F -5.9 °F -2.9 °F 59% 29.64 in 10.0 mi North 11.5 mph - N/A   Clear
7:53 PM 9.0 °F -6.6 °F -4.0 °F 56% 29.63 in 10.0 mi North 12.7 mph - N/A   Clear
8:53 PM 6.1 °F -7.8 °F -5.1 °F 60% 29.62 in 10.0 mi NNW 9.2 mph - N/A   Clear
9:53 PM 5.0 °F -10.0 °F -6.0 °F 61% 29.60 in 10.0 mi NNW 10.4 mph - N/A   Clear
10:53 PM 1.9 °F -10.6 °F -6.0 °F 69% 29.58 in 10.0 mi NNW 6.9 mph - N/A   Clear
11:53 PM 1.9 °F -9.2 °F -5.1 °F 72% 29.57 in 10.0 mi NNW 5.8 mph - N/A   Clear